Regional Weather Roundup
Issued by NWS

Home | Current Version | Previous Version | Text Only | Print | Product List | Glossary On
Versions: 1 2 3 4 5 6 7 8 9 10 11 12 13 14 15 16 17 18 19 20 21 22 23 24 25 26 27 28 29 30 31 32 33 34 35 36 37 38 39 40 41 42 43 44 45 46 47 48 49 50
000
ASUS43 KLMK 280510
RWRKY
KENTUCKY REGIONAL WEATHER ROUNDUP
NATIONAL WEATHER SERVICE LOUISVILLE KY
100 AM EDT FRI AUG 28 2015

NOTE "FAIR" INDICATES FEW OR NO CLOUDS BELOW 12,000 FEET
WITH NO SIGNIFICANT WEATHER AND/OR OBSTRUCTIONS TO VISIBILITY.

KYZ001>023-026-027-061>063-070>075-280600-
WESTERN AND SOUTH CENTRAL KENTUCKY

CITY           SKY/WX    TMP DP  RH WIND       PRES   REMARKS
PADUCAH        CLEAR     60  57  89 CALM      30.08S
HENDERSON      CLEAR     63  55  77 SE5       30.09F
OWENSBORO      CLEAR     65  59  81 CALM      30.12R
HOPKINSVILLE   CLEAR     62  57  81 NE7       30.10R
BOWLING GREEN  CLEAR     62  56  80 NE3       30.12S
GLASGOW        CLEAR     60  55  84 E3        30.12F
$$

KYZ024-025-028>034-038-045-046-053-280600-
NORTH CENTRAL KENTUCKY

CITY           SKY/WX    TMP DP  RH WIND       PRES   REMARKS
LOUISVILLE/SDF PTCLDY    67  56  67 SE5       30.12S
LOUISVILLE/LOU CLEAR     66  57  72 SE3       30.13S
FORT KNOX      CLEAR     60  56  88 E2        30.11F
$$

KYZ035>037-039>044-047>052-055>060-089>105-280600-
NORTHEAST KENTUCKY

CITY           SKY/WX    TMP DP  RH WIND       PRES   REMARKS
LEXINGTON      CLEAR     64  53  67 E6        30.14F
COVINGTON      PTCLDY    62  57  83 SE3       30.15S
FRANKFORT      CLEAR     60  54  80 E5        30.12F
$$

KYZ054-064>069-076>088-106>120-280600-
SOUTHEAST KENTUCKY

CITY           SKY/WX    TMP DP  RH WIND       PRES   REMARKS
JACKSON        CLEAR     62  54  74 CALM      30.16F
LONDON         CLEAR     62  54  74 CALM      30.15F
SOMERSET       CLEAR     59  54  82 CALM      30.15S
MIDDLESBORO    CLOUDY    62  59  90 CALM      30.16S
MONTICELLO     CLEAR     57  56  97 CALM      30.16F
$$



USA.gov is the U.S. government's official web portal to all federal, state and local government web resources and services.